This is the latest recevied weather packets stored in our database for station/object ALANSN-2. If no packets are shown the sender has not sent any weather packets the latest 10 day(s).
| Time | Temp. | Humidity | Pressure | Rain* | Wind** | Luminosity | Snow |
|---|---|---|---|---|---|---|---|
| 1777998001 | 7.78° C | 66% | 1012 hPa | 0 mm | - | 673 W/m² | - |
| 1777997402 | 7.22° C | 70% | 1012 hPa | 0 mm | - | 670 W/m² | - |
| 1777997102 | 7.22° C | 68% | 1011.9 hPa | 0 mm | - | 677 W/m² | - |
| 1777995602 | 6.67° C | 69% | 1012.1 hPa | 0 mm | - | 699 W/m² | - |
| 1777995302 | 7.22° C | 73% | 1012 hPa | 0 mm | - | 726 W/m² | - |
| 1777995001 | 6.67° C | 73% | 1012.4 hPa | 0 mm | - | 736 W/m² | - |
| 1777994702 | 6.67° C | 74% | 1012.1 hPa | 0 mm | - | 716 W/m² | - |
| 1777994102 | 6.67° C | 74% | 1012.1 hPa | 0 mm | - | 747 W/m² | - |
| 1777993802 | 6.67° C | 73% | 1012.1 hPa | 0 mm | - | 758 W/m² | - |
| 1777993501 | 6.67° C | 74% | 1012.1 hPa | 0 mm | - | 719 W/m² | - |
| 1777991702 | 6.67° C | 75% | 1011.6 hPa | 0 mm | - | 659 W/m² | - |
| 1777991102 | 6.67° C | 77% | 1011.6 hPa | 0 mm | - | 567 W/m² | - |
| 1777989901 | 6.11° C | 79% | 1011.5 hPa | 0 mm | - | 271 W/m² | - |
| 1777989302 | 6.67° C | 80% | 1011.4 hPa | 0 mm | - | 258 W/m² | - |
| 1777988401 | 6.11° C | 80% | 1011.3 hPa | 0 mm | - | 203 W/m² | - |
| 1777987802 | 6.11° C | 80% | 1011 hPa | 0 mm | - | 148 W/m² | - |
| 1777987502 | 6.11° C | 80% | 1010.9 hPa | 0 mm | - | 144 W/m² | - |
| 1777986302 | 6.11° C | 81% | 1010.8 hPa | 0 mm | - | 138 W/m² | - |
| 1777984802 | 6.11° C | 80% | 1010.7 hPa | 0 mm | - | 136 W/m² | - |
| 1777984502 | 6.11° C | 79% | 1010.5 hPa | 0 mm | - | 127 W/m² | - |
| 1777984202 | 6.11° C | 80% | 1010.8 hPa | 0 mm | - | 124 W/m² | - |
| 1777983901 | 6.11° C | 80% | 1010.4 hPa | 0 mm | - | 127 W/m² | - |
| 1777982702 | 5.56° C | 83% | 1010.7 hPa | 0 mm | - | 91 W/m² | - |
| 1777980001 | 3.89° C | 86% | 1010.5 hPa | 0 mm | - | 34 W/m² | - |
| 1777979702 | 4.44° C | 85% | 1010.2 hPa | 0 mm | - | 24 W/m² | - |
* Rain latest hour (hover to see other rain measurements)
** Current wind speed in m/s (hover to see current wind gust speed)